Time,TemperatureF,DewpointF,PressureIn,WindDirection,WindDirectionDegrees,WindSpeedMPH,WindSpeedGustMPH,Humidity,HourlyPrecipIn,Conditions,Clouds,dailyrainin,SoftwareType,DateUTC
2013-04-11 00:00:00,21.0,-99.9,-100.00,ESE,123,6.0,9.0,-999,-99.99,,,-99.99,,2013-04-11 06:00:00,
2013-04-11 00:32:00,21.0,-99.9,-100.00,ESE,123,6.0,9.0,-999,-99.99,,,-99.99,,2013-04-11 06:32:00,
2013-04-11 00:42:00,21.0,-99.9,-100.00,ESE,123,6.0,9.0,-999,-99.99,,,-99.99,,2013-04-11 06:42:00,
2013-04-11 00:53:00,21.0,-99.9,-100.00,ESE,123,6.0,9.0,-999,-99.99,,,-99.99,,2013-04-11 06:53:00,
2013-04-11 01:00:00,25.0,-99.9,-100.00,ESE,102,3.0,4.0,-999,-99.99,,,-99.99,,2013-04-11 07:00:00,
2013-04-11 01:32:00,25.0,-99.9,-100.00,ESE,102,3.0,4.0,-999,-99.99,,,-99.99,,2013-04-11 07:32:00,
2013-04-11 01:43:00,25.0,-99.9,-100.00,ESE,102,3.0,4.0,-999,-99.99,,,-99.99,,2013-04-11 07:43:00,
2013-04-11 01:52:00,25.0,-99.9,-100.00,ESE,102,3.0,4.0,-999,-99.99,,,-99.99,,2013-04-11 07:52:00,
2013-04-11 02:00:00,28.0,-99.9,-100.00,ENE,78,2.0,3.0,-999,-99.99,,,-99.99,,2013-04-11 08:00:00,
2013-04-11 02:33:00,28.0,-99.9,-100.00,ENE,78,2.0,3.0,-999,-99.99,,,-99.99,,2013-04-11 08:33:00,
2013-04-11 02:43:00,28.0,-99.9,-100.00,ENE,78,2.0,3.0,-999,-99.99,,,-99.99,,2013-04-11 08:43:00,
2013-04-11 02:52:00,28.0,-99.9,-100.00,ENE,78,2.0,3.0,-999,-99.99,,,-99.99,,2013-04-11 08:52:00,
2013-04-11 03:00:00,29.0,-99.9,-100.00,WNW,291,14.0,14.0,-999,-99.99,,,-99.99,,2013-04-11 09:00:00,
2013-04-11 03:33:00,29.0,-99.9,-100.00,WNW,291,14.0,14.0,-999,-99.99,,,-99.99,,2013-04-11 09:33:00,
2013-04-11 03:43:00,29.0,-99.9,-100.00,WNW,291,14.0,14.0,-999,-99.99,,,-99.99,,2013-04-11 09:43:00,
2013-04-11 03:53:00,29.0,-99.9,-100.00,WNW,291,14.0,14.0,-999,-99.99,,,-99.99,,2013-04-11 09:53:00,
2013-04-11 04:00:00,31.0,-99.9,-100.00,NW,305,12.0,13.0,-999,-99.99,,,-99.99,,2013-04-11 10:00:00,
2013-04-11 04:33:00,31.0,-99.9,-100.00,NW,305,12.0,13.0,-999,-99.99,,,-99.99,,2013-04-11 10:33:00,
2013-04-11 04:42:00,31.0,-99.9,-100.00,NW,305,12.0,13.0,-999,-99.99,,,-99.99,,2013-04-11 10:42:00,
2013-04-11 04:53:00,31.0,-99.9,-100.00,NW,305,12.0,13.0,-999,-99.99,,,-99.99,,2013-04-11 10:53:00,
2013-04-11 05:00:00,32.0,-99.9,-100.00,WNW,287,27.0,27.0,-999,-99.99,,,-99.99,,2013-04-11 11:00:00,
2013-04-11 05:32:00,32.0,-99.9,-100.00,WNW,287,27.0,27.0,-999,-99.99,,,-99.99,,2013-04-11 11:32:00,
2013-04-11 05:43:00,32.0,-99.9,-100.00,WNW,287,27.0,27.0,-999,-99.99,,,-99.99,,2013-04-11 11:43:00,
2013-04-11 05:53:00,32.0,-99.9,-100.00,WNW,287,27.0,27.0,-999,-99.99,,,-99.99,,2013-04-11 11:53:00,
2013-04-11 06:00:00,31.0,-99.9,-100.00,WNW,288,19.0,23.0,-999,-99.99,,,-99.99,,2013-04-11 12:00:00,
2013-04-11 06:32:00,31.0,-99.9,-100.00,WNW,288,19.0,23.0,-999,-99.99,,,-99.99,,2013-04-11 12:32:00,
2013-04-11 06:43:00,31.0,-99.9,-100.00,WNW,288,19.0,23.0,-999,-99.99,,,-99.99,,2013-04-11 12:43:00,
2013-04-11 06:53:00,31.0,-99.9,-100.00,WNW,288,19.0,23.0,-999,-99.99,,,-99.99,,2013-04-11 12:53:00,
2013-04-11 07:00:00,31.0,-99.9,-100.00,WNW,282,18.0,26.0,-999,-99.99,,,-99.99,,2013-04-11 13:00:00,
2013-04-11 07:33:00,31.0,-99.9,-100.00,WNW,282,18.0,26.0,-999,-99.99,,,-99.99,,2013-04-11 13:33:00,
2013-04-11 07:43:00,31.0,-99.9,-100.00,WNW,282,18.0,26.0,-999,-99.99,,,-99.99,,2013-04-11 13:43:00,
2013-04-11 07:54:00,31.0,-99.9,-100.00,WNW,282,18.0,26.0,-999,-99.99,,,-99.99,,2013-04-11 13:54:00,
2013-04-11 08:00:00,33.0,-99.9,-100.00,WNW,290,22.0,23.0,-999,-99.99,,,-99.99,,2013-04-11 14:00:00,
2013-04-11 08:33:00,33.0,-99.9,-100.00,WNW,290,22.0,23.0,-999,-99.99,,,-99.99,,2013-04-11 14:33:00,
2013-04-11 08:43:00,33.0,-99.9,-100.00,WNW,290,22.0,23.0,-999,-99.99,,,-99.99,,2013-04-11 14:43:00,
2013-04-11 08:53:00,33.0,-99.9,-100.00,WNW,290,22.0,23.0,-999,-99.99,,,-99.99,,2013-04-11 14:53:00,
2013-04-11 11:00:00,34.0,-99.9,-100.00,WNW,296,26.0,33.0,-999,-99.99,,,-99.99,,2013-04-11 17:00:00,
2013-04-11 11:33:00,34.0,-99.9,-100.00,WNW,296,26.0,33.0,-999,-99.99,,,-99.99,,2013-04-11 17:33:00,
2013-04-11 11:43:00,34.0,-99.9,-100.00,WNW,296,26.0,33.0,-999,-99.99,,,-99.99,,2013-04-11 17:43:00,
2013-04-11 11:53:00,34.0,-99.9,-100.00,WNW,296,26.0,33.0,-999,-99.99,,,-99.99,,2013-04-11 17:53:00,
2013-04-11 12:00:00,36.0,-99.9,-100.00,WNW,303,29.0,30.0,-999,-99.99,,,-99.99,,2013-04-11 18:00:00,
2013-04-11 12:33:00,36.0,-99.9,-100.00,WNW,303,29.0,30.0,-999,-99.99,,,-99.99,,2013-04-11 18:33:00,
2013-04-11 12:43:00,36.0,-99.9,-100.00,WNW,303,29.0,30.0,-999,-99.99,,,-99.99,,2013-04-11 18:43:00,
2013-04-11 12:53:00,36.0,-99.9,-100.00,WNW,303,29.0,30.0,-999,-99.99,,,-99.99,,2013-04-11 18:53:00,
2013-04-11 13:00:00,35.0,-99.9,-100.00,WNW,299,13.0,28.0,-999,-99.99,,,-99.99,,2013-04-11 19:00:00,
2013-04-11 13:33:00,35.0,-99.9,-100.00,WNW,299,13.0,28.0,-999,-99.99,,,-99.99,,2013-04-11 19:33:00,
2013-04-11 13:43:00,35.0,-99.9,-100.00,WNW,299,13.0,28.0,-999,-99.99,,,-99.99,,2013-04-11 19:43:00,
2013-04-11 13:53:00,35.0,-99.9,-100.00,WNW,299,13.0,28.0,-999,-99.99,,,-99.99,,2013-04-11 19:53:00,
2013-04-11 14:00:00,36.0,-99.9,-100.00,West,279,26.0,28.0,-999,-99.99,,,-99.99,,2013-04-11 20:00:00,
2013-04-11 14:34:00,36.0,-99.9,-100.00,West,279,26.0,28.0,-999,-99.99,,,-99.99,,2013-04-11 20:34:00,
2013-04-11 14:43:00,36.0,-99.9,-100.00,West,279,26.0,28.0,-999,-99.99,,,-99.99,,2013-04-11 20:43:00,
2013-04-11 14:53:00,36.0,-99.9,-100.00,West,279,26.0,28.0,-999,-99.99,,,-99.99,,2013-04-11 20:53:00,
2013-04-11 15:00:00,38.0,-99.9,-100.00,WNW,286,20.0,28.0,-999,-99.99,,,-99.99,,2013-04-11 21:00:00,
2013-04-11 15:33:00,38.0,-99.9,-100.00,WNW,286,20.0,28.0,-999,-99.99,,,-99.99,,2013-04-11 21:33:00,
2013-04-11 15:43:00,38.0,-99.9,-100.00,WNW,286,20.0,28.0,-999,-99.99,,,-99.99,,2013-04-11 21:43:00,
2013-04-11 15:54:00,38.0,-99.9,-100.00,WNW,286,20.0,28.0,-999,-99.99,,,-99.99,,2013-04-11 21:54:00,
2013-04-11 16:00:00,40.0,-99.9,-100.00,West,279,18.0,31.0,-999,-99.99,,,-99.99,,2013-04-11 22:00:00,
2013-04-11 16:33:00,40.0,-99.9,-100.00,West,279,18.0,31.0,-999,-99.99,,,-99.99,,2013-04-11 22:33:00,
2013-04-11 16:44:00,40.0,-99.9,-100.00,West,279,18.0,31.0,-999,-99.99,,,-99.99,,2013-04-11 22:44:00,
2013-04-11 16:53:00,40.0,-99.9,-100.00,West,279,18.0,31.0,-999,-99.99,,,-99.99,,2013-04-11 22:53:00,
2013-04-11 17:00:00,39.0,-99.9,-100.00,NNW,335,14.0,25.0,-999,-99.99,,,-99.99,,2013-04-11 23:00:00,
2013-04-11 17:33:00,39.0,-99.9,-100.00,NNW,335,14.0,25.0,-999,-99.99,,,-99.99,,2013-04-11 23:33:00,
2013-04-11 17:43:00,39.0,-99.9,-100.00,NNW,335,14.0,25.0,-999,-99.99,,,-99.99,,2013-04-11 23:43:00,
2013-04-11 17:54:00,39.0,-99.9,-100.00,NNW,335,14.0,25.0,-999,-99.99,,,-99.99,,2013-04-11 23:54:00,
2013-04-11 19:00:00,36.0,-99.9,-100.00,NW,306,11.0,16.0,-999,-99.99,,,-99.99,,2013-04-12 01:00:00,
2013-04-11 19:33:00,36.0,-99.9,-100.00,NW,306,11.0,16.0,-999,-99.99,,,-99.99,,2013-04-12 01:33:00,
2013-04-11 19:43:00,36.0,-99.9,-100.00,NW,306,11.0,16.0,-999,-99.99,,,-99.99,,2013-04-12 01:43:00,
2013-04-11 19:53:00,36.0,-99.9,-100.00,NW,306,11.0,16.0,-999,-99.99,,,-99.99,,2013-04-12 01:53:00,
2013-04-11 20:00:00,34.0,-99.9,-100.00,WNW,300,4.0,12.0,-999,-99.99,,,-99.99,,2013-04-12 02:00:00,
2013-04-11 20:33:00,34.0,-99.9,-100.00,WNW,300,4.0,12.0,-999,-99.99,,,-99.99,,2013-04-12 02:33:00,
2013-04-11 20:42:00,34.0,-99.9,-100.00,WNW,300,4.0,12.0,-999,-99.99,,,-99.99,,2013-04-12 02:42:00,
2013-04-11 20:53:00,34.0,-99.9,-100.00,WNW,300,4.0,12.0,-999,-99.99,,,-99.99,,2013-04-12 02:53:00,
2013-04-11 21:00:00,32.0,-99.9,-100.00,WNW,283,4.0,6.0,-999,-99.99,,,-99.99,,2013-04-12 03:00:00,
2013-04-11 21:33:00,32.0,-99.9,-100.00,WNW,283,4.0,6.0,-999,-99.99,,,-99.99,,2013-04-12 03:33:00,
2013-04-11 21:43:00,32.0,-99.9,-100.00,WNW,283,4.0,6.0,-999,-99.99,,,-99.99,,2013-04-12 03:43:00,
2013-04-11 21:53:00,32.0,-99.9,-100.00,WNW,283,4.0,6.0,-999,-99.99,,,-99.99,,2013-04-12 03:53:00,
2013-04-11 22:00:00,33.0,-99.9,-100.00,North,0,0.0,1.0,-999,-99.99,,,-99.99,,2013-04-12 04:00:00,
2013-04-11 22:33:00,33.0,-99.9,-100.00,North,0,0.0,1.0,-999,-99.99,,,-99.99,,2013-04-12 04:33:00,
2013-04-11 22:43:00,33.0,-99.9,-100.00,North,0,0.0,1.0,-999,-99.99,,,-99.99,,2013-04-12 04:43:00,
2013-04-11 22:53:00,33.0,-99.9,-100.00,North,0,0.0,1.0,-999,-99.99,,,-99.99,,2013-04-12 04:53:00,
2013-04-11 23:00:00,33.0,-99.9,-100.00,NNW,329,5.0,6.0,-999,-99.99,,,-99.99,,2013-04-12 05:00:00,
2013-04-11 23:32:00,33.0,-99.9,-100.00,NNW,329,5.0,6.0,-999,-99.99,,,-99.99,,2013-04-12 05:32:00,
2013-04-11 23:42:00,33.0,-99.9,-100.00,NNW,329,5.0,6.0,-999,-99.99,,,-99.99,,2013-04-12 05:42:00,
2013-04-11 23:52:00,33.0,-99.9,-100.00,NNW,329,5.0,6.0,-999,-99.99,,,-99.99,,2013-04-12 05:52:00,